Cloud_Cover
0 0 0 0 0 0 0 0 0 0 0 0 0 0 0 0 0 0 0 0 0 4
3 0 0 0 0 0 0 0 0 0 0 0 0 0 7 0 0 0 0 9 41 87
87 23 5 0 0 0 0 0 0 0 0 0 0 2 6 10 22 51 96 100 100 100
100 100 100 76 44 11 1 0 0 0 0 0 0 16 57 97 100 100 100 100 100 100
100 100 100 100 100 100 100 98 84 4 5 9 5 15 88 100 100 100 100 100 100 100
96 86 92 99 100 100 100 100 100 100 100 100 48 58 98 100 100 98 100 100 100 100
5 60 37 49 100 100 100 100 100 100 100 100 100 100 100 100 96 100 100 100 100 100
5 5 7 6 54 92 24 36 100 100 100 100 100 100 100 100 100 100 100 100 100 100
100 100 100 89 100 100 100 49 71 78 91 93 100 100 100 100 100 100 100 100 100 100
100 100 100 100 100 100 100 100 100 77 76 100 100 100 100 100 100 100 100 100 100 100
100 100 100 100 100 100 100 100 100 100 100 100 100 100 100 100 100 100 100 100 100 100
100 100 100 100 100 100 100 100 100 100 100 100 100 100 100 100 100 100 100 100 100 100
100 100 100 100 100 100 100 100 100 100 100 100 100 100 100 100 100 100 100 100 100 100
100 100 100 100 100 100 100 100 100 100 100 100 100 100 100 100 100 100 100 100 100 100